Asturias, Spain

2:50 AM CET en Diciembre 13, 2017 (GMT +0100)
Asturias

Tiempo Historia de LEAS - Diciembre, 2017

Change the Weather History Date:

Jueves, Diciembre 7, 2017

  Actual Average Record
Temperature  
Temperatura media 56 ° F -  
Temperatura máxima 65 ° F 54 ° F 68 ° F (2000)
Temperatura mínima 47 ° F 43 ° F 37 ° F (2013)
Degree Days  
Grados día de calefacción 9    
Growing Degree Days 6 (Base 50)    
Moisture  
Punto de rocío 44 ° F    
Average Humidity 65    
Maximum Humidity 88    
Minimum Humidity 32    
Precipitación  
Precipitación 0.04 pul - - ()
Presión al nivel del mar  
Presión al nivel del mar 30.30 pul    
Viento  
Velocidad del viento 8 mph ()    
Velocidad máxima del viento 18 mph    
Max Gust Speed -    
Visibilidad 6.4 Millas    
Eventos Lluvia    
Averages and records for this station are not official NWS values.
T = Trace of Precipitation, MM = Missing Value Source: Averaged Metar Reports

Daily Weather History Graph

Daily Weather History Graph

Search for Another Location

Airport or City:

Trip Planner

Search our weather history database for the weather conditions in past years. The results will help you decide how hot, cold, wet, or windy it might be!

Date:

Astronomía

Dec. 07, 2017 Salida Puesta
Hora real 8:43 AM CET 5:47 PM CET
Crepúsculo civil 8:11 AM CET 6:20 PM CET
Crepúsculo náutico 7:35 AM CET 6:55 PM CET
Crepúsculo astronómico 7:00 AM CET 7:30 PM CET
Luna 10:21 PM CET (12/7) 12:09 PM CET (12/7)
Horas de luz 10h 08m
Horas de luz
9h 03m
Gibosa menguante, 80% of the Moon is Illuminated
Dic 7
Gibosa menguante
Dic 10
Cuarto menguante
Dic 18
Nueva
Dic 26
Cuarto creciente
Ene 2
Luna llena

Hourly Weather History & Observations

Hora (CET) Temp. Vientos helados Punto de rocío Humedad Presión Visibilidad Wind Dir Velocidad del viento Velocidad de ráfagas Precip Eventos Condiciones
12:00 AM 47 ° F - 38 ° F 60% 30.40 pul - SSO 11.5 mph - -  
12:00 AM 48.2 ° F - 37.4 ° F 66% 30.36 pul - OSO 5.8 mph - N/A   Bruma
12:30 AM 48.2 ° F - 37.4 ° F 66% 30.36 pul - OSO 4.6 mph - N/A   Bruma
1:00 AM 48 ° F - 36 ° F 52% 30.39 pul - SO 8.1 mph - -  
1:00 AM 48.2 ° F - 37.4 ° F 66% 30.36 pul - OSO 12.7 mph - N/A   Bruma
1:30 AM 48.2 ° F - 37.4 ° F 66% 30.36 pul - SO 5.8 mph - N/A   Bruma
2:00 AM 49 ° F - 36 ° F 50% 30.38 pul - SSO 4.6 mph - -  
2:00 AM 48.2 ° F - 35.6 ° F 62% 30.36 pul 2.8 mi Variable 1.2 mph - N/A   Bruma
2:30 AM 48.2 ° F - 37.4 ° F 66% 30.33 pul - Variable 1.2 mph - N/A   Bruma
3:00 AM 47 ° F - 37 ° F 58% 30.36 pul - SSO 5.8 mph - -  
3:00 AM 46.4 ° F 45.2 ° F 37.4 ° F 71% 30.33 pul - OSO 3.5 mph - N/A   Neblina
3:30 AM 48.2 ° F - 37.4 ° F 66% 30.33 pul - SO 4.6 mph - N/A   Bruma
4:00 AM 49 ° F - 35 ° F 46% 30.35 pul - SSO 6.9 mph - -  
4:00 AM 50.0 ° F - 35.6 ° F 58% 30.33 pul - SO 3.5 mph - N/A   Bruma
4:30 AM 50.0 ° F - 33.8 ° F 54% 30.33 pul 2.8 mi OSO 6.9 mph - N/A   Bruma
5:00 AM 50.0 ° F - 35.6 ° F 58% 30.33 pul 2.8 mi OSO 4.6 mph - N/A   Bruma
5:30 AM 50.0 ° F - 37.4 ° F 62% 30.33 pul 2.8 mi Oeste 6.9 mph - N/A   Bruma
6:00 AM 51 ° F - 35 ° F 42% 30.35 pul - SSO 5.8 mph - -  
6:00 AM 51.8 ° F - 33.8 ° F 50% 30.33 pul 6.2 mi OSO 8.1 mph - N/A   Muy nublado
6:30 AM 53.6 ° F - 39.2 ° F 58% 30.33 pul 6.2 mi SO 12.7 mph - N/A   Nubes dispersas
7:00 AM 53 ° F - 37 ° F 43% 30.32 pul 11 mi SSO 13.8 mph - -   Muy nublado
7:00 AM 53.6 ° F - 37.4 ° F 54% 30.30 pul 6.2 mi SO 12.7 mph - N/A   Muy nublado
7:30 AM 55.4 ° F - 33.8 ° F 44% 30.30 pul 6.2 mi SO 17.3 mph - N/A   Muy nublado
8:00 AM 55 ° F - 33 ° F 32% 30.32 pul - SSO 13.8 mph - -  
8:00 AM 55.4 ° F - 33.8 ° F 44% 30.30 pul 6.2 mi SO 15.0 mph - N/A   Muy nublado
8:30 AM 55.4 ° F - 35.6 ° F 47% 30.30 pul 6.2 mi SO 13.8 mph - N/A   Muy nublado
9:00 AM 55 ° F - 36 ° F 36% 30.32 pul - SSO 12.7 mph - -  
9:00 AM 55.4 ° F - 35.6 ° F 47% 30.30 pul 6.2 mi SO 12.7 mph - N/A   Muy nublado
9:30 AM 55.4 ° F - 39.2 ° F 54% 30.30 pul 6.2 mi SO 15.0 mph - N/A   Muy nublado
10:00 AM 56 ° F - 37 ° F 37% 30.31 pul 19 mi SO 13.8 mph - -   Muy nublado
10:00 AM 57.2 ° F - 37.4 ° F 48% 30.30 pul 6.2 mi SO 13.8 mph - N/A   Muy nublado
10:30 AM 59.0 ° F - 39.2 ° F 48% 30.30 pul 6.2 mi SSO 18.4 mph - N/A   Muy nublado
11:00 AM 59.0 ° F - 39.2 ° F 48% 30.30 pul 6.2 mi SO 12.7 mph - N/A   Nubes dispersas
11:30 AM 60.8 ° F - 42.8 ° F 52% 30.30 pul 6.2 mi SO 15.0 mph - N/A   Parcialmente nublado
12:00 PM 62 ° F - 44 ° F 41% 30.31 pul - SO 11.5 mph - -  
12:00 PM 60.8 ° F - 44.6 ° F 55% 30.30 pul 6.2 mi SO 11.5 mph - N/A   Parcialmente nublado
12:30 PM 62.6 ° F - 46.4 ° F 55% 30.30 pul 6.2 mi SO 10.4 mph - N/A   Parcialmente nublado
1:00 PM 65 ° F - 47 ° F 42% 30.29 pul 25 mi SO 9.2 mph - -   Nubes dispersas
1:00 PM 64.4 ° F - 46.4 ° F 52% 30.27 pul 6.2 mi SO 10.4 mph - N/A   Nubes dispersas
1:30 PM 64.4 ° F - 48.2 ° F 56% 30.27 pul 6.2 mi SO 9.2 mph - N/A   Nubes dispersas
2:00 PM 64 ° F - 49 ° F 47% 30.27 pul - SO 10.4 mph - -  
2:00 PM 62.6 ° F - 48.2 ° F 59% 30.27 pul 6.2 mi SO 8.1 mph - N/A   Muy nublado
2:18 PM 60.8 ° F - 51.8 ° F 72% 30.27 pul 6.2 mi OSO 12.7 mph - N/A Lluvia Lluvia
2:30 PM 59.0 ° F - 51.8 ° F 77% 30.27 pul 5.6 mi SO 8.1 mph - N/A Lluvia Lluvia
2:44 PM 57.2 ° F - 51.8 ° F 82% 30.27 pul 5.0 mi SSO 10.4 mph - N/A Lluvia Lluvia débil
3:00 PM 58 ° F - 52 ° F 73% 30.27 pul - Sur 9.2 mph - -   Precipitación desconocida
3:00 PM 57.2 ° F - 53.6 ° F 88% 30.27 pul 6.2 mi SSO 8.1 mph - N/A   Muy nublado
3:30 PM 59.0 ° F - 51.8 ° F 77% 30.24 pul 6.2 mi SO 9.2 mph - N/A Lluvia Lluvia débil
4:00 PM 58 ° F - 52 ° F 75% 30.26 pul 7 mi SO 11.5 mph - - Lluvia Lluvia
4:00 PM 59.0 ° F - 51.8 ° F 77% 30.24 pul 6.2 mi SO 13.8 mph - N/A Lluvia Lluvia
4:15 PM 57.2 ° F - 51.8 ° F 82% 30.24 pul 6.2 mi OSO 12.7 mph - N/A   Nubes dispersas
4:30 PM 57.2 ° F - 51.8 ° F 82% 30.24 pul 6.2 mi SO 11.5 mph - N/A   Muy nublado
4:35 PM 57.2 ° F - 53.6 ° F 88% 30.24 pul 2.5 mi SO 11.5 mph - N/A Lluvia Lluvia
5:00 PM 56 ° F - 53 ° F 87% 30.26 pul - SSO 6.9 mph - -   Precipitación desconocida
5:00 PM 57.2 ° F - 53.6 ° F 88% 30.24 pul 5.0 mi OSO 8.1 mph - N/A Lluvia Lluvia débil
5:30 PM 57.2 ° F - 53.6 ° F 88% 30.24 pul 5.6 mi SO 9.2 mph - N/A   Muy nublado
6:00 PM 57.2 ° F - 53.6 ° F 88% 30.27 pul 6.2 mi Oeste 6.9 mph - N/A   Muy nublado
6:30 PM 57.2 ° F - 53.6 ° F 88% 30.27 pul 6.2 mi OSO 4.6 mph - N/A   Muy nublado
7:00 PM 57 ° F - 53 ° F 81% 30.28 pul 12 mi OSO 4.6 mph - -   Parcialmente nublado
7:00 PM 57.2 ° F - 53.6 ° F 88% 30.27 pul 6.2 mi OSO 5.8 mph - N/A   Muy nublado
7:30 PM 57.2 ° F - 53.6 ° F 88% 30.27 pul 6.2 mi OSO 3.5 mph - N/A   Muy nublado
8:00 PM 57 ° F - 53 ° F 81% 30.29 pul - OSO 2.3 mph - -  
8:00 PM 57.2 ° F - 51.8 ° F 82% 30.27 pul 6.2 mi OSO 3.5 mph - N/A   Muy nublado
8:30 PM 57.2 ° F - 51.8 ° F 82% 30.27 pul 6.2 mi SO 5.8 mph - N/A   Muy nublado
9:00 PM 58 ° F - 52 ° F 75% 30.28 pul - SO 6.9 mph - -  
9:00 PM 59.0 ° F - 51.8 ° F 77% 30.27 pul 6.2 mi SO 9.2 mph - N/A   Muy nublado
9:30 PM 57.2 ° F - 51.8 ° F 82% 30.27 pul 6.2 mi OSO 6.9 mph - N/A   Muy nublado
10:00 PM 58 ° F - 52 ° F 73% 30.29 pul 12 mi SO 5.8 mph - -   Muy nublado
10:00 PM 57.2 ° F - 51.8 ° F 82% 30.27 pul 6.2 mi OSO 6.9 mph - N/A   Muy nublado
10:30 PM 57.2 ° F - 51.8 ° F 82% 30.27 pul 6.2 mi SO 8.1 mph - N/A   Muy nublado
11:00 PM 58 ° F - 51 ° F 70% 30.29 pul - SO 8.1 mph - -  
11:00 PM 59.0 ° F - 51.8 ° F 77% 30.27 pul 6.2 mi SO 9.2 mph - N/A   Muy nublado
11:30 PM 57.2 ° F - 50.0 ° F 77% 30.27 pul 6.2 mi OSO 8.1 mph - N/A   Muy nublado